User: anonymous   Login
Location: �chenoz-la-M�line
(47.6009°N, 6.1354°E)
Time: 04:52:46
(UTC+00:00)
Language:

Cosmos 2369 Rocket - Orbit

View from above orbital plane
View from above orbital plane
View from above satellite
View from above satellite

Ground track
Ground track

The orbit data is extracted from the following two-line orbital elements,

1 26070U 00006B   21101.88516961 -.00000281  00000-0 -11929-3 0  9998
2 26070  71.0013 266.1290 0015538  22.4925 337.6876 14.15474001 94865
Epoch (UTC): 11 April 2021 21:14:38
Eccentricity: 0.0015538
inclination: 71.0013°
perigee height: 829 km
apogee height: 852 km
right ascension of ascending node: 266.1290°
argument of perigee: 22.4925°
revolutions per day: 14.15474001
mean anomaly at epoch: 337.6876°
orbit number at epoch: 9486

The dashed part of the orbit path shows where the satellite is in the earth's shadow,  

DLR